Find Starlink 33937

NORAD ID: 63704 Int'l Des: 2025-087 Owner: SPXS Country: US Constellation: starlink operational
LEOCIRCULAR

Live Position

Loading 3D Globe...

About Starlink 33937

Description loading...

Upcoming Passes

Passes for default location (London). Set your location on the main map for personalized predictions.

Altitude History

Loading altitude history...

Two-Line Element Set

1 63704U 25087H 26123.94638634 .00021301 00000-0 72908-3 0 9995
2 63704 53.1615 322.6084 0000540 196.4530 163.6453 15.30207676 57664
Epoch: May 3, 2026 • Age: 11 hours

Current Status

Altitude 480.9 km
Velocity 7.63 km/s
Sub-Earth Point 49.86°N, 63.69°E
Launch Date Apr 28, 2025
Age 1 years
Type internet

Technical Details

Classification Payload
Mass 575.00 kg
Dry Mass 530.00 kg
Total Mass 575.00 kg
Length 0.30 m
Diameter 4.10 m
Span 29.00 m
Shape Box + pan
Manufacturer SPXS
Bus Type Starlink V2MO
Phase Status In Orbit
Owner/State SPXS/US

Most Searched